• In Russia
  • List of Countries
  • For 7 days
  • Water Temperature
  • Satellite Maps
  • Weather Map
  • Weather Widgets
  • user-avatar
    Login

    Hourly Weather Samarqand

    Today, 18 August, Saturday

    Time Temperature Precipitation Wind Pressure Humidity
    00:00 +25°C° 0 mm 3 mps 693 mmHg 23%
    01:00 +25°C° 0 mm 3 mps 693 mmHg 24%
    02:00 +24°C° 0 mm 2 mps 693 mmHg 25%
    03:00 +24°C° 0 mm 2 mps 693 mmHg 26%
    04:00 +23°C° 0 mm 2 mps 693 mmHg 28%
    05:00 +25°C° 0 mm 2 mps 693 mmHg 26%
    06:00 +26°C° 0 mm 2 mps 693 mmHg 25%
    07:00 +28°C° 0 mm 2 mps 694 mmHg 24%
    08:00 +30°C° 0 mm 2 mps 694 mmHg 21%
    09:00 +31°C° 0 mm 1 mps 694 mmHg 18%
    10:00 +33°C° 0 mm 1 mps 695 mmHg 16%
    11:00 +35°C° 0 mm 2 mps 695 mmHg 14%
    12:00 +36°C° 0 mm 2 mps 695 mmHg 12%
    13:00 +37°C° 0 mm 3 mps 694 mmHg 11%
    14:00 +37°C° 0 mm 3 mps 694 mmHg 10%
    15:00 +37°C° 0 mm 3 mps 694 mmHg 10%
    16:00 +36°C° 0 mm 3 mps 694 mmHg 9%
    17:00 +34°C° 0 mm 3 mps 694 mmHg 11%
    18:00 +31°C° 0 mm 2 mps 694 mmHg 13%
    19:00 +29°C° 0 mm 2 mps 694 mmHg 15%
    20:00 +28°C° 0 mm 2 mps 694 mmHg 16%
    21:00 +28°C° 0 mm 2 mps 694 mmHg 16%
    22:00 +27°C° 0 mm 1 mps 694 mmHg 17%
    23:00 +26°C° 0 mm 1 mps 694 mmHg 18%

    Tomorrow, 19 August, Sunday

    Time Temperature Precipitation Wind Pressure Humidity
    00:00 +26°C° 0 mm 1 mps 694 mmHg 19%
    01:00 +25°C° 0 mm 1 mps 694 mmHg 20%
    02:00 +25°C° 0 mm 1 mps 694 mmHg 20%
    03:00 +24°C° 0 mm 1 mps 694 mmHg 21%
    04:00 +24°C° 0 mm 1 mps 694 mmHg 22%
    05:00 +26°C° 0 mm 1 mps 695 mmHg 21%
    06:00 +27°C° 0 mm 1 mps 695 mmHg 19%
    07:00 +29°C° 0 mm 1 mps 695 mmHg 18%
    08:00 +30°C° 0 mm 2 mps 696 mmHg 16%
    09:00 +32°C° 0 mm 2 mps 696 mmHg 15%
    10:00 +34°C° 0 mm 2 mps 696 mmHg 13%
    11:00 +35°C° 0 mm 2 mps 696 mmHg 12%
    12:00 +36°C° 0 mm 2 mps 695 mmHg 12%
    13:00 +37°C° 0 mm 2 mps 695 mmHg 11%
    14:00 +37°C° 0 mm 2 mps 695 mmHg 11%
    15:00 +37°C° 0 mm 2 mps 695 mmHg 11%
    16:00 +37°C° 0 mm 2 mps 694 mmHg 10%
    17:00 +35°C° 0 mm 3 mps 694 mmHg 12%
    18:00 +33°C° 0 mm 3 mps 694 mmHg 14%
    19:00 +30°C° 0 mm 3 mps 694 mmHg 16%
    20:00 +29°C° 0 mm 3 mps 694 mmHg 17%
    21:00 +29°C° 0 mm 3 mps 694 mmHg 18%
    22:00 +28°C° 0 mm 3 mps 694 mmHg 19%
    23:00 +27°C° 0 mm 3 mps 694 mmHg 20%

    Day after tomorrow, 20 August, Monday

    Time Temperature Precipitation Wind Pressure Humidity
    00:00 +27°C° 0 mm 2 mps 694 mmHg 20%
    01:00 +26°C° 0 mm 2 mps 693 mmHg 21%
    02:00 +26°C° 0 mm 2 mps 693 mmHg 22%
    03:00 +26°C° 0 mm 2 mps 693 mmHg 22%
    04:00 +25°C° 0 mm 1 mps 693 mmHg 23%
    05:00 +27°C° 0 mm 1 mps 694 mmHg 21%
    06:00 +29°C° 0 mm 1 mps 695 mmHg 19%
    07:00 +31°C° 0 mm 1 mps 695 mmHg 17%
    08:00 +34°C° 0 mm 2 mps 695 mmHg 14%
    09:00 +36°C° 0 mm 3 mps 696 mmHg 12%
    10:00 +38°C° 0 mm 4 mps 696 mmHg 10%
    11:00 +38°C° 0 mm 4 mps 696 mmHg 10%
    12:00 +40°C° 0 mm 5 mps 696 mmHg 11%
    13:00 +41°C° 0 mm 6 mps 696 mmHg 11%
    14:00 +40°C° 0 mm 6 mps 696 mmHg 12%
    15:00 +40°C° 0 mm 7 mps 696 mmHg 13%
    16:00 +39°C° 0 mm 7 mps 696 mmHg 14%
    17:00 +36°C° 0 mm 6 mps 696 mmHg 20%
    18:00 +33°C° 0 mm 5 mps 696 mmHg 25%
    19:00 +30°C° 0 mm 4 mps 697 mmHg 31%
    20:00 +29°C° 0 mm 3 mps 697 mmHg 32%
    21:00 +28°C° 0 mm 2 mps 698 mmHg 34%
    22:00 +27°C° 0 mm 2 mps 698 mmHg 35%
    23:00 +26°C° 0 mm 2 mps 698 mmHg 37%

    21 August, Tuesday

    Time Temperature Precipitation Wind Pressure Humidity
    00:00 +26°C° 0 mm 3 mps 698 mmHg 38%
    01:00 +25°C° 0 mm 4 mps 698 mmHg 40%
    02:00 +23°C° 0 mm 4 mps 698 mmHg 44%
    03:00 +22°C° 0 mm 4 mps 698 mmHg 48%
    04:00 +21°C° 0 mm 4 mps 698 mmHg 52%
    05:00 +22°C° 0 mm 4 mps 698 mmHg 52%
    06:00 +22°C° 0 mm 4 mps 699 mmHg 51%
    07:00 +23°C° 0 mm 5 mps 699 mmHg 50%
    08:00 +25°C° 0 mm 5 mps 699 mmHg 45%
    09:00 +27°C° 0 mm 5 mps 699 mmHg 40%
    10:00 +29°C° 0 mm 5 mps 699 mmHg 35%
    11:00 +29°C° 0 mm 5 mps 699 mmHg 33%
    12:00 +30°C° 0 mm 5 mps 699 mmHg 31%
    13:00 +32°C° 0 mm 5 mps 699 mmHg 28%
    14:00 +32°C° 0 mm 5 mps 698 mmHg 28%
    15:00 +32°C° 0 mm 6 mps 698 mmHg 29%
    16:00 +30°C° 0 mm 6 mps 698 mmHg 29%
    17:00 +29°C° 0 mm 6 mps 698 mmHg 29%
    18:00 +27°C° 0 mm 6 mps 697 mmHg 28%
    19:00 +24°C° 0 mm 6 mps 697 mmHg 28%
    20:00 +23°C° 0 mm 5 mps 697 mmHg 28%
    21:00 +23°C° 0 mm 5 mps 697 mmHg 27%
    22:00 +22°C° 0 mm 5 mps 697 mmHg 26%
    23:00 +21°C° 0 mm 5 mps 697 mmHg 27%

    22 August, Wednesday

    Time Temperature Precipitation Wind Pressure Humidity
    00:00 +21°C° 0 mm 4 mps 697 mmHg 28%
    01:00 +20°C° 0 mm 4 mps 696 mmHg 29%
    02:00 +20°C° 0 mm 4 mps 696 mmHg 30%
    03:00 +19°C° 0 mm 4 mps 696 mmHg 31%
    04:00 +19°C° 0 mm 4 mps 696 mmHg 32%
    05:00 +20°C° 0 mm 4 mps 697 mmHg 31%
    06:00 +21°C° 0 mm 4 mps 697 mmHg 29%
    07:00 +23°C° 0 mm 4 mps 697 mmHg 28%
    08:00 +25°C° 0 mm 4 mps 698 mmHg 26%
    09:00 +27°C° 0 mm 4 mps 698 mmHg 23%
    10:00 +29°C° 0 mm 4 mps 698 mmHg 21%
    11:00 +30°C° 0 mm 4 mps 698 mmHg 20%
    12:00 +32°C° 0 mm 4 mps 697 mmHg 19%
    13:00 +33°C° 0 mm 4 mps 697 mmHg 18%
    14:00 +33°C° 0 mm 4 mps 697 mmHg 18%
    15:00 +33°C° 0 mm 4 mps 697 mmHg 18%
    16:00 +32°C° 0 mm 5 mps 696 mmHg 18%
    17:00 +30°C° 0 mm 4 mps 696 mmHg 18%
    18:00 +28°C° 0 mm 4 mps 696 mmHg 19%
    19:00 +26°C° 0 mm 4 mps 696 mmHg 19%
    20:00 +25°C° 0 mm 4 mps 696 mmHg 20%
    21:00 +25°C° 0 mm 4 mps 696 mmHg 20%
    22:00 +23°C° 0 mm 4 mps 696 mmHg 21%
    23:00 +22°C° 0 mm 4 mps 696 mmHg 22%

    23 August, Thursday

    Time Temperature Precipitation Wind Pressure Humidity
    00:00 +22°C° 0 mm 3 mps 696 mmHg 23%
    01:00 +21°C° 0 mm 3 mps 695 mmHg 25%
    02:00 +21°C° 0 mm 3 mps 695 mmHg 26%
    03:00 +21°C° 0 mm 3 mps 696 mmHg 27%
    04:00 +20°C° 0 mm 3 mps 696 mmHg 28%
    05:00 +22°C° 0 mm 3 mps 696 mmHg 27%
    06:00 +24°C° 0 mm 3 mps 697 mmHg 26%
    07:00 +25°C° 0 mm 4 mps 697 mmHg 25%
    08:00 +27°C° 0 mm 4 mps 697 mmHg 22%
    09:00 +28°C° 0 mm 4 mps 698 mmHg 20%
    10:00 +30°C° 0 mm 4 mps 698 mmHg 18%
    11:00 +32°C° 0 mm 4 mps 698 mmHg 17%
    12:00 +32°C° 0 mm 4 mps 697 mmHg 16%
    13:00 +33°C° 0 mm 4 mps 697 mmHg 15%
    14:00 +33°C° 0 mm 4 mps 697 mmHg 15%
    15:00 +33°C° 0 mm 5 mps 697 mmHg 15%
    16:00 +33°C° 0 mm 5 mps 697 mmHg 15%
    17:00 +30°C° 0 mm 5 mps 697 mmHg 17%
    18:00 +28°C° 0 mm 4 mps 697 mmHg 19%
    19:00 +27°C° 0 mm 4 mps 697 mmHg 21%
    20:00 +26°C° 0 mm 4 mps 697 mmHg 23%
    21:00 +25°C° 0 mm 3 mps 697 mmHg 24%
    22:00 +24°C° 0 mm 3 mps 697 mmHg 25%
    23:00 +24°C° 0 mm 3 mps 697 mmHg 27%
    Show more